Regional Weather Roundup
Issued by NWS

Home | Current Version | Previous Version | Graphics & Text | Print | Product List | Glossary On
Versions: 1 2 3 4 5 6 7 8 9 10 11 12 13 14 15 16 17 18 19 20 21 22 23 24 25 26 27 28 29 30 31 32 33 34 35 36 37 38 39 40 41 42 43 44 45 46 47 48 49 50
000
ASUS43 KTOP 211008
RWRKS

WEATHER ROUNDUP FOR KANSAS
NATIONAL WEATHER SERVICE GOODLAND KS
500 AM CDT MON MAY 21 2018

NOTE:  "FAIR" INDICATES FEW OR NO CLOUDS BELOW 12,000 FEET WITH NO
SIGNIFICANT WEATHER AND/OR OBSTRUCTIONS TO VISIBILITY.

KSZ001>006-013>018-027>032-041>047-211100-
NORTHWEST KANSAS

CITY           SKY/WX    TMP DP  RH WIND       PRES   REMARKS
GOODLAND       FOG       49  49 100 S10       30.09F VSB 3/4
HAYS           CLOUDY    54  53  97 CALM      30.10S
HILL CITY      FOG       51  51 100 SE3       30.10S VSB 1/4
RUSSELL        CLOUDY    55  55 100 CALM      30.08S
$$

KSZ061>065-074>080-084>089-211100-
SOUTHWEST KANSAS

CITY           SKY/WX    TMP DP  RH WIND       PRES   REMARKS
DODGE CITY     FOG       49  48  97 SE7       30.09R VSB 1/4
ELKHART        PTCLDY    55  51  84 S9        30.09R
GARDEN CITY    CLEAR     49  48  97 E5        30.08S
GREAT BEND     CLEAR     52  51  97 NW3       30.09F
LIBERAL        CLEAR     52  51  97 SE7       30.10S
PRATT          FOG       54  53  97 E6        30.10S VSB 1/2
$$

KSZ066>073-081>083-090>101-211100-
SOUTHEAST KANSAS

CITY           SKY/WX    TMP DP  RH WIND       PRES   REMARKS
CHANUTE        CLEAR     58  58 100 W3        30.05F FOG
COFFEYVILLE    CLEAR     60  59  96 NW5       30.04F
HUTCHINSON     CLOUDY    57  55  93 NW3       30.08S
MEDICINE LODGE   N/A     53  52  96 N5          N/A
NEWTON         CLOUDY    56  54  93 N5        30.09S
PARSONS        CLEAR     58  58 100 NW3       30.06S FOG
WICHITA INTL   CLOUDY    59  57  93 N7        30.08R
WICHITA JABRA  CLOUDY    58  57  97 CALM      30.08R
WICHITA MCCONL CLEAR     57  57  99 N7        30.07
WINFIELD       CLEAR     54  54 100 CALM      30.08S FOG
$$

KSZ007>012-019>026-033>040-048>060-102>105-211100-
NORTHEAST KANSAS

CITY           SKY/WX    TMP DP  RH WIND       PRES   REMARKS
CONCORDIA      CLOUDY    54  52  93 NW6       30.09R
EMPORIA        CLOUDY    57  55  93 NW7       30.06S
LAWRENCE       CLOUDY    61  60  97 NW3       30.03F FOG
MANHATTAN      CLOUDY    56  54  93 NW5       30.07R
MARYSVILLE     CLOUDY    54  52  94 NW6       30.07S
OLATHE IND     MOCLDY    60  59  96 NW7       30.04S FOG
OLATHE EXE     CLOUDY    60  60 100 W5        30.03F FOG
SALINA         CLOUDY    58  54  86 NW8       30.09R
TOPEKA BILLARD CLOUDY    60  58  92 W7        30.05R
TOPEKA FORBES  CLOUDY    60  58  92 W9        30.05R
$$




USA.gov is the U.S. government's official web portal to all federal, state and local government web resources and services.